User: anonymous   Login
Location: Ostrava
(49.8330°N, 18.2830°E)
Time: 21:33:08
(UTC+02:00)
Language:

Cosmos 2221 - Orbit

View from above orbital plane
View from above orbital plane
View from above satellite
View from above satellite

Ground track
Ground track

The orbit data is extracted from the following two-line orbital elements,

1 22236U 92080A   17115.55001638 +.00000401 +00000-0 +41325-4 0  9991
2 22236 082.5057 108.9550 0016989 168.9499 191.2095 14.87571879298453
Epoch (UTC): 25 April 2017 13:12:01
Eccentricity: 0.0016989
inclination: 82.5057°
perigee height: 593 km
apogee height: 617 km
right ascension of ascending node: 108.9550°
argument of perigee: 168.9499°
revolutions per day: 14.87571879
mean anomaly at epoch: 191.2095°
orbit number at epoch: 29845

The dashed part of the orbit path shows where the satellite is in the earth's shadow,  

DLR